Find Gxiba-1

NORAD ID: 67685 Int'l Des: 1998-067 Owner: UPAEP Country: MX operational
LEOCIRCULAR

当前视图

正在加载3D地球...

关于 Gxiba-1

正在加载描述...

即将过境

Passes for default location (London). Set your location on the main map for personalized predictions.

高度历史

Loading altitude history...

两行轨道根数

1 67685U 98067YB 26145.93640402 .00051067 00000-0 64448-3 0 9996
2 67685 51.6292 45.7301 0013441 117.8582 242.3774 15.58955704 16818
Epoch: May 25, 2026 • Age: 21 hours

当前状态

高度 388.4 km
速度 7.68 km/s
星下点 -5.85°S, 52.55°E
发射日期 Oct 26, 2025
运行时间 0.5 years
类型 other

技术详情

分类 Payload
质量 1.00 kg
干质量 1.00 kg
总质量 1.00 kg
长度 0.10 m
直径 0.10 m
跨度 0.10 m
形状 Box
制造商 UPAEP
平台类型 Cubesat 1U
阶段状态 In Orbit
所有者/国家 UPAEP/MX

Most Searched